Find Starlink 32813

NORAD ID: 62869 Int'l Des: 2025-022 Owner: SPXS Country: US Constellation: starlink operational
LEOCIRCULAR

リアルタイム位置

3D地球を読み込み中...

Starlink 32813について

説明を読み込み中...

次回通過

Passes for default location (London). Set your location on the main map for personalized predictions.

高度履歴

Loading altitude history...

軌道要素

1 62869U 25022R 26125.55537380 .00015890 00000-0 54737-3 0 9996
2 62869 53.1585 225.6848 0001476 74.7002 285.4162 15.30205113 70605
Epoch: May 5, 2026 • Age: 12 hours

現在のステータス

高度 478.1 km
速度 7.63 km/s
衛星直下点 39.94°N, 128.15°E
打ち上げ日 Feb 2, 2025
運用期間 1.2 years
タイプ internet

技術仕様

分類 Payload
質量 730.00 kg
乾燥質量 700.00 kg
総質量 730.00 kg
長さ 0.30 m
直径 4.10 m
スパン 29.00 m
形状 Box + pan
製造者 SPXS
バスタイプ Starlink V2M
フェーズステータス In Orbit
所有者/国 SPXS/US

Most Searched